GFSNIL_sfc_thetae_231.txt.gz
Theta_e
323 322 322 321 321 321 322 323 321 323 322 320 321 318 319 315 312 313 312 309 307 304
322 322 321 321 322 323 323 320 319 317 313 311 311 311 310 308 306 305 302 301 301 298
322 322 323 322 322 322 317 314 312 310 308 307 307 307 305 303 302 300 298 298 296 294
321 321 322 320 319 316 312 310 308 307 306 306 306 304 301 299 298 295 294 294 292 291
309 317 319 312 310 309 306 307 307 307 306 303 301 299 297 295 294 292 291 290 289 288
306 307 308 309 307 305 304 303 301 301 299 298 297 296 295 293 292 290 289 288 286 286
300 303 304 304 303 303 304 304 301 297 296 295 294 292 291 289 287 286 286 286 286 285
293 296 297 297 298 299 299 295 293 291 290 290 290 289 287 286 285 284 284 283 284 284
288 289 290 292 289 288 288 289 289 287 287 286 288 289 288 286 284 283 282 281 282 283
286 285 285 286 286 285 285 286 285 285 286 286 287 288 287 286 284 283 282 281 281 281
284 284 284 284 284 284 285 284 284 284 285 285 286 287 286 285 283 282 282 281 281 281
284 284 284 283 283 283 283 283 283 284 284 284 284 286 285 283 281 280 280 281 280 280
284 283 282 282 282 283 283 282 283 282 283 283 283 285 284 283 281 279 280 280 279 281
283 282 282 282 282 282 281 281 281 280 281 282 283 284 285 284 281 280 279 278 277 279

GFSNIL_sfc_thetae_234.txt.gz
Theta_e
325 324 324 324 322 322 321 321 322 321 322 321 322 323 323 323 321 320 319 314 309 305
319 323 322 322 322 322 322 321 322 322 322 321 321 321 316 311 308 307 306 304 302 300
311 317 322 321 319 321 322 320 319 319 317 314 311 309 307 304 303 301 300 298 296 295
306 310 320 320 320 320 318 316 315 313 310 308 306 305 304 301 300 298 296 295 293 292
303 308 313 319 319 315 311 309 308 307 306 306 303 301 299 297 295 294 292 291 291 290
301 306 307 311 315 309 306 306 306 303 301 300 299 298 296 294 293 291 290 289 288 287
295 298 305 305 305 305 307 305 303 303 301 299 297 295 293 291 289 288 287 287 286 286
291 293 296 298 298 295 295 297 300 294 293 293 292 291 288 287 286 285 284 284 285 285
288 288 289 289 290 291 288 287 288 288 288 287 288 289 288 286 284 284 283 282 283 284
286 285 285 286 287 286 286 286 286 286 286 285 286 288 287 285 283 282 282 282 281 282
284 284 285 285 285 285 286 286 286 285 285 284 285 287 286 285 283 282 282 282 281 280
284 284 284 284 284 285 285 285 284 284 284 284 284 286 286 283 282 281 281 281 281 280
284 283 283 283 283 284 284 283 284 283 284 284 283 286 285 283 282 280 279 279 280 281
282 282 283 283 283 283 283 282 282 282 282 282 283 284 285 284 281 280 279 279 279 280

GFSNIL_sfc_thetae_237.txt.gz
Theta_e
308 311 318 325 324 323 322 322 324 322 322 322 322 322 323 323 322 322 321 321 322 322
306 308 313 322 325 323 323 323 323 322 321 321 322 322 323 322 322 320 318 316 309 306
302 305 308 315 319 322 322 320 321 321 321 321 321 321 321 317 310 307 302 301 300 298
299 303 306 310 315 319 320 320 318 320 320 320 317 315 312 306 303 300 297 297 296 294
298 302 305 308 314 317 316 314 313 310 308 307 307 305 302 299 298 295 294 293 292 291
296 298 300 305 307 315 312 308 306 305 302 301 300 298 297 296 294 293 292 291 290 289
293 294 297 302 305 305 309 306 305 303 302 301 299 297 295 293 291 289 288 288 288 287
291 292 293 294 294 294 294 293 294 299 298 295 294 293 291 289 288 287 285 285 285 285
288 289 289 289 290 289 289 288 288 287 288 288 289 290 289 287 285 285 284 283 284 285
286 285 286 287 287 287 287 288 287 286 285 285 285 288 287 286 284 284 283 283 283 283
285 284 285 285 285 286 287 287 287 286 285 284 285 287 286 285 283 282 282 282 282 282
284 284 284 284 284 285 286 286 285 285 285 284 284 286 285 283 282 281 280 281 281 282
284 283 283 284 284 284 285 284 284 284 284 284 284 286 285 283 281 280 279 280 280 281
282 282 283 283 284 284 283 283 283 283 283 284 284 285 286 285 281 280 279 279 279 281

GFSNIL_sfc_thetae_240.txt.gz
Theta_e
302 304 305 308 310 312 311 323 325 324 323 325 326 327 327 327 327 326 324 323 323 325
302 302 304 306 308 311 312 321 324 324 323 323 324 325 325 324 324 325 325 324 322 323
300 301 302 305 307 311 313 314 323 322 322 323 322 323 322 321 323 322 322 320 318 305
298 299 301 303 306 309 314 316 317 321 321 320 320 320 320 320 319 318 306 304 303 298
297 298 299 302 305 309 311 315 314 315 316 318 318 318 318 313 309 304 300 297 296 294
296 296 296 298 301 306 308 312 311 310 305 304 302 300 299 301 299 297 295 295 293 292
294 295 294 295 298 299 300 310 309 306 301 300 298 296 295 293 291 291 290 290 290 289
292 292 292 292 293 293 293 295 295 295 295 296 295 293 292 291 289 288 287 287 286 286
290 289 288 289 289 290 289 289 289 288 288 289 290 291 290 289 286 286 285 284 284 285
287 286 286 286 287 287 288 288 287 287 286 285 287 289 288 286 285 284 284 284 284 283
286 285 285 285 285 286 287 286 287 286 286 285 286 287 287 285 284 283 283 283 282 281
285 285 284 284 285 285 285 285 286 286 286 285 285 287 286 284 282 282 281 282 281 281
284 284 283 284 284 284 285 284 285 285 285 285 284 287 286 285 283 281 280 281 281 282
284 284 283 283 284 284 284 284 283 283 283 283 284 284 285 284 282 281 280 280 281 282

GFSNIL_sfc_thetae_246.txt.gz
Theta_e
293 293 294 295 296 297 299 300 303 304 307 309 309 311 312 318 321 320 318 316 316 317
293 293 293 294 296 297 300 302 302 304 306 308 310 310 312 311 320 320 319 317 317 317
293 293 293 294 296 297 299 300 301 303 304 306 309 310 312 311 312 320 319 318 318 317
293 293 294 294 296 297 299 299 300 301 302 304 308 310 310 310 310 318 318 319 318 318
292 292 293 294 294 295 294 296 297 299 301 304 307 309 309 308 309 316 317 317 317 317
290 291 292 291 292 293 294 294 296 296 298 299 302 307 303 300 306 316 318 318 317 316
288 289 290 291 291 291 292 292 293 294 295 297 301 297 294 294 294 292 293 293 295 298
288 289 289 289 289 289 289 290 291 290 291 293 294 293 290 290 289 289 287 288 289 289
287 287 287 287 287 287 287 288 289 288 288 289 290 292 291 290 288 288 287 285 286 287
285 284 285 286 286 285 285 286 285 285 285 285 288 291 290 288 287 286 286 286 286 285
283 283 284 284 284 284 285 284 284 284 284 284 286 288 288 286 285 284 284 284 284 284
282 282 283 283 283 283 283 284 284 284 284 284 284 287 287 285 283 281 281 282 283 282
282 282 282 282 282 283 283 282 283 282 283 284 284 286 286 284 283 280 280 281 281 282
282 283 283 282 282 283 282 282 282 281 282 283 283 285 285 285 282 281 280 280 281 282